Total_Precipitation_Accumulation
0.01 0.01 0.01 0.01 0.03 0.11 0.18 0.13 0.16 0.25 0.27 0.25 0.28 0.32 0.38 0.47 0.84 1.58 0.94 0.49 0.33 0.24 0.25 0.14 0.14 0.13 0.12 0.14 0.17 0.19 0.18 0.20 0.22 0.24 0.24 0.21 0.19 0.19 0.21 0.21 0.26 0.35 0.39 0.38 0.34 0.33 0.34 0.37 0.35
0.01 0.01 0.01 0.02 0.06 0.19 0.23 0.19 0.24 0.28 0.34 0.30 0.33 0.37 0.39 0.40 0.39 0.41 0.44 0.44 0.33 0.22 0.22 0.15 0.16 0.18 0.16 0.15 0.18 0.24 0.22 0.21 0.21 0.22 0.22 0.22 0.22 0.24 0.26 0.27 0.31 0.36 0.41 0.43 0.43 0.40 0.36 0.36 0.37
0.02 0.01 0.02 0.04 0.07 0.17 0.24 0.23 0.29 0.31 0.32 0.37 0.47 0.60 0.60 0.54 0.53 0.46 0.40 0.32 0.26 0.19 0.18 0.19 0.21 0.23 0.24 0.20 0.19 0.24 0.25 0.26 0.27 0.27 0.25 0.26 0.28 0.29 0.30 0.34 0.37 0.40 0.44 0.50 0.53 0.51 0.44 0.40 0.40
0.02 0.02 0.03 0.06 0.07 0.12 0.22 0.31 0.36 0.38 0.35 0.34 0.43 0.74 0.69 0.52 0.54 0.56 0.40 0.32 0.30 0.23 0.17 0.20 0.23 0.25 0.26 0.24 0.24 0.24 0.26 0.30 0.33 0.33 0.33 0.33 0.33 0.34 0.35 0.40 0.44 0.47 0.50 0.55 0.59 0.58 0.52 0.46 0.45
0.02 0.02 0.03 0.07 0.08 0.13 0.22 0.35 0.35 0.38 0.43 0.44 0.50 0.81 0.79 0.64 0.65 0.76 0.66 0.49 0.46 0.40 0.33 0.25 0.24 0.24 0.24 0.26 0.31 0.34 0.31 0.32 0.37 0.37 0.36 0.37 0.37 0.38 0.40 0.43 0.46 0.52 0.54 0.54 0.51 0.51 0.48 0.48 0.49
0.02 0.02 0.06 0.06 0.08 0.17 0.25 0.34 0.34 0.40 0.48 0.59 0.72 1.06 1.29 1.13 1.02 1.09 1.10 0.75 0.61 0.55 0.48 0.42 0.32 0.25 0.28 0.35 0.36 0.42 0.46 0.45 0.44 0.43 0.43 0.45 0.44 0.44 0.47 0.49 0.53 0.60 0.67 0.67 0.56 0.51 0.49 0.49 0.50
0.02 0.04 0.07 0.05 0.10 0.22 0.28 0.36 0.39 0.47 0.66 0.78 0.94 1.39 1.53 1.44 1.39 1.21 1.26 1.05 0.73 0.71 0.72 0.67 0.47 0.39 0.42 0.48 0.49 0.53 0.55 0.53 0.52 0.54 0.56 0.57 0.56 0.54 0.54 0.55 0.60 0.66 0.70 0.70 0.65 0.63 0.61 0.59 0.57
0.03 0.06 0.05 0.05 0.12 0.27 0.34 0.40 0.46 0.56 0.76 0.90 1.01 1.46 1.64 1.54 1.33 1.25 1.24 1.28 1.04 1.01 1.04 0.96 0.87 0.80 0.68 0.67 0.73 0.71 0.72 0.65 0.57 0.54 0.59 0.60 0.58 0.55 0.59 0.57 0.65 0.71 0.74 0.71 0.75 0.83 0.83 0.78 0.68
0.02 0.08 0.07 0.05 0.11 0.26 0.39 0.48 0.55 0.57 0.76 0.98 0.90 1.01 1.43 1.26 1.36 1.62 1.53 1.53 1.45 1.36 1.32 1.14 1.15 1.12 0.98 0.91 0.86 0.91 0.90 0.83 0.73 0.66 0.68 0.66 0.75 0.83 0.83 0.77 0.89 0.95 1.00 1.04 1.06 1.05 1.01 1.03 0.91
0.02 0.05 0.05 0.04 0.08 0.20 0.34 0.49 0.63 0.66 0.70 0.91 1.00 0.99 1.16 1.25 1.35 1.61 1.89 1.75 1.72 1.53 1.44 1.38 1.26 1.18 1.12 1.00 1.07 1.17 1.12 1.09 0.92 0.97 0.98 1.01 1.33 1.49 1.29 1.37 1.40 1.38 1.37 1.35 1.31 1.27 1.25 1.17 0.94
0.02 0.03 0.04 0.06 0.09 0.20 0.30 0.42 0.48 0.59 0.75 0.88 1.05 1.14 1.20 1.39 1.59 1.70 2.08 2.04 1.95 1.85 1.64 1.69 1.60 1.47 1.59 1.63 1.51 1.51 1.52 1.56 1.37 1.46 1.52 1.59 1.76 1.78 1.75 1.87 1.72 1.66 1.61 1.58 1.69 1.49 1.26 1.21 1.17
0.02 0.03 0.04 0.08 0.11 0.19 0.28 0.32 0.48 0.65 1.03 1.07 1.36 1.64 1.67 1.58 1.85 1.96 2.28 2.23 2.27 2.36 2.12 2.03 2.06 1.97 2.04 2.26 2.06 1.84 1.73 1.76 1.75 1.86 1.81 2.11 2.21 2.18 2.15 2.23 2.12 2.09 2.06 2.11 2.00 1.89 1.68 1.57 1.45
0.03 0.05 0.05 0.08 0.13 0.22 0.30 0.39 0.51 0.76 0.92 1.01 1.43 1.86 1.96 1.79 1.76 1.95 2.56 2.39 2.40 2.56 2.49 2.24 2.27 2.36 2.53 2.71 2.50 2.26 2.30 2.10 2.02 2.21 2.20 2.38 2.46 2.46 2.53 2.41 2.36 2.23 2.20 2.18 2.09 2.00 2.01 1.92 1.75
0.05 0.06 0.09 0.09 0.10 0.20 0.31 0.38 0.50 0.69 0.65 0.77 1.14 1.44 1.55 1.70 1.80 1.96 2.31 2.41 2.37 2.48 2.61 2.68 2.60 2.66 2.61 2.72 2.69 2.43 2.29 2.39 2.25 2.26 2.31 2.34 2.49 2.72 2.79 2.73 2.65 2.56 2.48 2.54 2.39 2.19 2.35 2.19 2.09
0.04 0.06 0.10 0.12 0.15 0.23 0.30 0.46 0.69 0.88 0.80 0.89 1.10 1.22 1.45 1.70 1.98 2.19 2.36 2.37 2.38 2.39 2.45 2.59 2.65 2.77 2.76 2.77 2.80 2.65 2.47 2.46 2.55 2.62 2.69 2.55 2.52 2.80 2.90 3.05 2.95 2.86 2.80 2.81 2.75 2.64 2.70 2.47 2.32
0.06 0.09 0.16 0.18 0.17 0.19 0.32 0.69 0.96 0.99 1.00 1.02 1.09 1.20 1.36 1.67 1.95 2.05 2.04 2.05 2.02 2.02 2.21 2.41 2.58 2.70 2.96 3.10 3.21 3.05 3.10 3.07 3.01 2.87 2.84 2.72 2.71 2.93 3.22 3.30 3.23 3.24 3.12 3.17 3.27 3.21 3.01 2.86 2.69
0.08 0.12 0.16 0.24 0.19 0.18 0.36 0.78 1.00 0.95 1.07 1.12 1.11 1.11 1.21 1.43 1.64 1.78 1.83 1.84 1.84 1.82 2.20 2.49 2.75 3.01 3.21 3.44 3.69 3.65 3.74 3.59 3.44 3.36 3.25 3.30 3.41 3.44 3.60 3.68 3.69 3.65 3.65 3.64 3.48 3.65 3.46 3.37 3.18
0.14 0.15 0.19 0.21 0.19 0.20 0.36 0.63 0.82 0.92 1.02 1.12 1.11 1.09 1.08 1.27 1.49 1.66 1.80 1.96 1.90 1.99 2.31 2.64 2.91 3.33 3.78 3.85 4.01 4.01 4.20 4.16 4.11 4.19 4.06 3.90 3.99 4.07 4.20 4.14 4.16 4.15 4.16 4.01 3.98 4.00 3.78 3.56 3.50
0.16 0.18 0.23 0.20 0.18 0.23 0.32 0.54 0.78 0.91 1.09 1.25 1.21 1.18 1.25 1.30 1.55 1.78 1.95 2.17 2.38 2.56 2.70 2.90 3.14 3.43 3.64 3.97 4.29 4.47 4.59 4.74 4.79 4.78 4.82 4.84 4.86 4.97 4.99 4.80 4.77 4.65 4.53 4.33 4.24 4.08 3.87 3.62 3.58
0.11 0.15 0.19 0.20 0.21 0.23 0.34 0.55 0.80 0.90 1.04 1.24 1.30 1.34 1.32 1.39 1.53 1.89 2.20 2.63 2.84 2.94 2.98 3.18 3.50 3.78 3.93 4.32 4.81 5.20 5.34 5.40 5.42 5.41 5.55 5.65 5.68 5.81 5.83 5.78 5.56 5.38 5.11 4.64 4.27 4.11 3.88 3.54 3.63
0.08 0.11 0.13 0.20 0.24 0.30 0.45 0.81 1.06 1.07 1.20 1.33 1.36 1.50 1.50 1.52 1.77 2.02 2.38 2.65 2.79 2.88 3.00 3.16 3.59 4.03 4.46 4.95 5.49 5.91 6.12 6.17 6.05 5.77 5.84 5.97 5.89 5.95 6.08 6.03 5.81 5.48 4.93 4.40 4.23 4.16 4.01 3.79 3.71
0.07 0.08 0.09 0.14 0.23 0.37 0.44 0.97 1.37 1.46 1.51 1.43 1.44 1.53 1.51 1.52 1.74 2.02 2.25 2.52 2.65 2.76 2.99 3.19 3.56 4.19 4.68 5.05 5.70 6.31 6.57 6.78 6.88 6.65 6.33 6.10 5.85 5.73 5.62 5.45 5.06 4.67 4.31 4.01 3.88 3.91 3.77 3.75 3.60
0.06 0.06 0.09 0.11 0.16 0.31 0.35 0.77 1.50 1.68 1.80 1.64 1.57 1.60 1.43 1.36 1.55 1.87 2.00 2.24 2.54 2.64 2.76 3.00 3.51 4.08 4.74 5.36 5.91 6.45 6.89 7.12 7.08 6.66 6.23 5.72 5.35 4.93 4.54 4.19 3.97 3.89 3.69 3.46 3.33 3.31 3.22 3.08 3.00
0.05 0.06 0.12 0.15 0.24 0.45 0.44 0.72 1.55 1.93 2.11 2.14 1.81 1.59 1.41 1.30 1.39 1.53 1.67 1.87 2.17 2.26 2.49 2.82 3.24 3.92 4.60 5.18 5.78 6.24 6.62 6.68 6.36 5.84 5.33 4.99 4.63 4.17 3.68 3.41 3.18 3.06 2.88 2.67 2.53 2.51 2.53 2.62 2.67
0.06 0.14 0.36 0.53 0.64 0.66 0.53 0.83 1.61 1.82 1.71 1.68 1.73 1.78 1.55 1.27 1.26 1.44 1.51 1.66 1.84 1.96 2.22 2.59 3.13 3.74 4.17 4.67 5.17 5.49 5.69 5.75 5.68 5.34 4.92 4.60 4.18 3.76 3.29 2.85 2.62 2.39 2.19 2.08 2.04 2.01 2.00 2.11 2.24
0.07 0.16 0.51 0.75 0.79 0.82 0.85 1.29 1.90 1.71 1.40 1.35 1.46 1.55 1.42 1.33 1.36 1.56 1.67 1.77 1.88 1.98 2.11 2.45 2.89 3.33 3.58 3.83 4.22 4.51 4.62 4.65 4.53 4.30 3.97 3.68 3.39 3.13 2.82 2.37 2.00 1.78 1.67 1.58 1.64 1.67 1.69 1.74 1.82
0.09 0.14 0.26 0.38 0.49 0.79 1.25 1.77 2.31 2.17 1.61 1.39 1.41 1.38 1.33 1.33 1.36 1.54 1.69 1.79 1.88 1.91 2.04 2.18 2.43 2.66 2.89 3.08 3.26 3.40 3.44 3.36 3.24 3.05 2.81 2.61 2.44 2.20 2.05 1.85 1.63 1.49 1.45 1.45 1.48 1.47 1.45 1.53 1.61
0.12 0.17 0.23 0.42 0.72 1.07 1.40 2.01 2.72 2.66 2.09 1.67 1.57 1.50 1.39 1.33 1.37 1.51 1.56 1.63 1.68 1.62 1.71 1.79 2.00 2.13 2.27 2.39 2.44 2.36 2.37 2.32 2.19 2.03 1.93 1.79 1.61 1.49 1.46 1.42 1.42 1.36 1.28 1.31 1.37 1.33 1.31 1.40 1.42
0.15 0.19 0.30 0.43 0.54 1.04 1.60 2.35 2.58 2.72 2.50 2.11 1.69 1.46 1.34 1.29 1.28 1.31 1.35 1.38 1.40 1.33 1.34 1.43 1.58 1.78 1.87 1.86 1.90 1.86 1.79 1.64 1.55 1.45 1.40 1.32 1.23 1.21 1.20 1.21 1.23 1.22 1.21 1.20 1.20 1.16 1.16 1.21 1.33
0.15 0.21 0.34 0.60 0.64 0.78 1.34 2.43 2.53 2.80 2.69 2.34 1.93 1.61 1.46 1.38 1.27 1.20 1.18 1.16 1.17 1.13 1.12 1.19 1.25 1.34 1.38 1.42 1.43 1.42 1.36 1.27 1.23 1.17 1.13 1.15 1.12 1.09 1.12 1.12 1.12 1.16 1.22 1.24 1.17 1.08 1.06 1.12 1.22